Location: Fluertsh�userhof
(48.7537°N, 10.3850°E)
Time: 08:28:54
(UTC+00:00)

SWAS - Pass Details

Date: 18 September 2020
Orbit: 581 x 590 km, 69.9° (Epoch: 25 October)

Event Time Altitude Azimuth Distance (km) Brightness Sun altitude
Rises 19:31:57 0° 330° (NNW) 2,830 8.9 -21.0°
Reaches altitude 10° 19:34:12 10° 331° (NNW) 1,923 7.9 -21.3°
Maximum altitude 19:38:31 84° 59° (ENE) 597 4.3 -21.9°
Enters shadow 19:38:54 72° 130° (SE) 619 4.3 -22.0°
